UU976 LFMN-LFBD

Flight info

Callsign UU976
Flight time 1h 14m
Altitude 35000
Route LFMN/04R N0445F310 TURI7A TURIL DCT PADKO/N0439F300 UL127 FJR DCT GAI DCT SECHE/N0363F180 R17 MIRBA MIRB2L LFBD/29
Aircraft B737/H-SDE2E3FGHIRWXY/C

Departure

Time 2026-05-04 18:30
Airport Nice-Côte d'Azur Airport (LFMN)

Arrival

Time 2026-05-04 19:44
Airport Bordeaux–Mérignac Airport (LFBD)
Time Latitude Longitude Altitude Speed Heading
2026-05-04 18:26 43.65449 7.20342 23 ft 0 kts 134°
2026-05-04 18:27 43.65448 7.20343 23 ft 1 kts 134°
2026-05-04 18:28 43.65433 7.20364 24 ft 5 kts 136°
2026-05-04 18:28 43.65396 7.20366 23 ft 7 kts 192°
2026-05-04 18:28 43.65344 7.20315 23 ft 11 kts 217°
2026-05-04 18:28 43.65272 7.20307 24 ft 9 kts 148°
2026-05-04 18:29 43.65226 7.20386 24 ft 12 kts 110°
2026-05-04 18:29 43.65239 7.20484 23 ft 11 kts 57°
2026-05-04 18:29 43.65286 7.20550 25 ft 7 kts 44°
2026-05-04 18:29 43.65345 7.20628 23 ft 27 kts 45°
2026-05-04 18:30 43.66317 7.22028 29 ft 155 kts 62°
2026-05-04 18:30 43.66735 7.23031 684 ft 260 kts 64°
2026-05-04 18:30 43.67398 7.25118 1780 ft 233 kts 74°
2026-05-04 18:31 43.67557 7.27374 2881 ft 247 kts 99°
2026-05-04 18:31 43.66892 7.29556 4022 ft 248 kts 127°
2026-05-04 18:31 43.65625 7.31079 5036 ft 250 kts 140°
2026-05-04 18:31 43.64193 7.32648 5490 ft 269 kts 140°
2026-05-04 18:32 43.62697 7.34297 6040 ft 285 kts 140°
2026-05-04 18:32 43.61109 7.36051 6590 ft 293 kts 140°
2026-05-04 18:32 43.59510 7.37819 7104 ft 297 kts 141°
2026-05-04 18:32 43.57910 7.39589 7709 ft 294 kts 141°
2026-05-04 18:33 43.56372 7.41399 8930 ft 284 kts 140°
2026-05-04 18:33 43.54914 7.43166 9835 ft 272 kts 140°
2026-05-04 18:33 43.53562 7.44844 9960 ft 258 kts 140°
2026-05-04 18:33 43.52197 7.46297 9992 ft 239 kts 162°
2026-05-04 18:34 43.50622 7.46383 9994 ft 229 kts 200°
2026-05-04 18:34 43.49396 7.45016 10008 ft 235 kts 236°
2026-05-04 18:34 43.48724 7.42956 10116 ft 236 kts 246°
2026-05-04 18:34 43.48190 7.40777 10358 ft 243 kts 248°
2026-05-04 18:35 43.47646 7.38555 10613 ft 242 kts 248°
2026-05-04 18:35 43.47113 7.36368 10861 ft 241 kts 248°
2026-05-04 18:35 43.47080 7.34057 11139 ft 253 kts 287°
2026-05-04 18:35 43.48006 7.31901 11466 ft 278 kts 304°
2026-05-04 18:36 43.49264 7.29743 11769 ft 300 kts 306°
2026-05-04 18:36 43.50675 7.27473 12083 ft 320 kts 307°
2026-05-04 18:36 43.52185 7.25092 12398 ft 338 kts 308°
2026-05-04 18:36 43.53762 7.22620 12704 ft 356 kts 308°
2026-05-04 18:37 43.55423 7.19988 12395 ft 364 kts 308°
2026-05-04 18:37 43.57059 7.17359 12032 ft 361 kts 308°
2026-05-04 18:37 43.58703 7.14774 12381 ft 360 kts 311°
2026-05-04 18:37 43.60586 7.12395 12868 ft 368 kts 317°
2026-05-04 18:38 43.62641 7.10310 13351 ft 371 kts 324°
2026-05-04 18:38 43.64813 7.08364 13835 ft 372 kts 324°
2026-05-04 18:38 43.66902 7.06260 14261 ft 373 kts 318°
2026-05-04 18:38 43.68870 7.03877 14697 ft 374 kts 315°
2026-05-04 18:39 43.70818 7.01495 15126 ft 378 kts 317°
2026-05-04 18:39 43.72860 6.99193 15559 ft 381 kts 319°
2026-05-04 18:39 43.74950 6.96881 16012 ft 383 kts 318°
2026-05-04 18:39 43.76991 6.94541 16458 ft 385 kts 317°
2026-05-04 18:40 43.79045 6.92147 16923 ft 387 kts 317°
2026-05-04 18:40 43.81122 6.89754 17385 ft 391 kts 317°
2026-05-04 18:40 43.83233 6.87346 17869 ft 393 kts 317°
2026-05-04 18:40 43.85346 6.84921 18338 ft 396 kts 317°
2026-05-04 18:41 43.86635 6.83434 18604 ft 398 kts 317°
2026-05-04 18:41 43.88791 6.80943 19028 ft 401 kts 317°
2026-05-04 18:41 43.90935 6.78472 19450 ft 403 kts 317°
2026-05-04 18:41 43.93035 6.75949 19879 ft 402 kts 310°
2026-05-04 18:42 43.94714 6.72854 20335 ft 398 kts 296°
2026-05-04 18:42 43.95919 6.69436 20789 ft 396 kts 291°
2026-05-04 18:42 43.97066 6.65951 21238 ft 400 kts 291°
2026-05-04 18:42 43.98221 6.62420 21702 ft 400 kts 291°
2026-05-04 18:43 43.99387 6.58911 22182 ft 404 kts 291°
2026-05-04 18:43 44.00568 6.55366 22650 ft 405 kts 291°
2026-05-04 18:43 44.01742 6.51816 23137 ft 407 kts 291°
2026-05-04 18:43 44.02699 6.48100 23627 ft 404 kts 275°
2026-05-04 18:44 44.02614 6.44263 24101 ft 398 kts 257°
2026-05-04 18:44 44.02161 6.41767 24382 ft 398 kts 251°
2026-05-04 18:44 44.00853 6.37029 24914 ft 399 kts 240°
2026-05-04 18:44 43.99290 6.33829 24984 ft 401 kts 231°
2026-05-04 18:45 43.97475 6.30901 24989 ft 399 kts 227°
2026-05-04 18:45 43.95579 6.28110 25028 ft 398 kts 225°
2026-05-04 18:45 43.93652 6.25382 25782 ft 388 kts 225°
2026-05-04 18:45 43.91775 6.22756 26508 ft 382 kts 225°
2026-05-04 18:46 43.89928 6.20179 27263 ft 375 kts 225°
2026-05-04 18:46 43.88111 6.17643 28023 ft 367 kts 225°
2026-05-04 18:46 43.86334 6.15156 28773 ft 358 kts 225°
2026-05-04 18:46 43.84600 6.12722 29538 ft 350 kts 225°
2026-05-04 18:47 43.82912 6.10344 30290 ft 340 kts 225°
2026-05-04 18:47 43.81289 6.08058 30976 ft 330 kts 225°
2026-05-04 18:47 43.79703 6.05822 31667 ft 319 kts 225°
2026-05-04 18:47 43.78174 6.03680 32366 ft 308 kts 225°
2026-05-04 18:48 43.76680 6.01608 33074 ft 295 kts 225°
2026-05-04 18:48 43.75258 5.99660 33790 ft 283 kts 225°
2026-05-04 18:48 43.73890 5.97813 34444 ft 269 kts 225°
2026-05-04 18:48 43.72563 5.96047 34848 ft 264 kts 225°
2026-05-04 18:49 43.71225 5.94287 34944 ft 269 kts 225°
2026-05-04 18:49 43.69855 5.92492 34948 ft 277 kts 225°
2026-05-04 18:49 43.68442 5.90641 34957 ft 284 kts 225°
2026-05-04 18:49 43.66986 5.88732 34964 ft 292 kts 225°
2026-05-04 18:50 43.65485 5.86764 34968 ft 300 kts 225°
2026-05-04 18:50 43.62365 5.82669 34972 ft 317 kts 225°
2026-05-04 18:51 43.59105 5.78387 34956 ft 333 kts 225°
2026-05-04 18:51 43.55672 5.73869 34954 ft 350 kts 225°
2026-05-04 18:52 43.52065 5.69116 34949 ft 367 kts 224°
2026-05-04 18:52 43.48334 5.64169 34945 ft 382 kts 225°
2026-05-04 18:53 43.44426 5.58977 34929 ft 394 kts 225°
2026-05-04 18:53 43.40482 5.53738 34930 ft 396 kts 225°
2026-05-04 18:54 43.36513 5.48473 34927 ft 396 kts 225°
2026-05-04 18:54 43.32551 5.43220 34921 ft 396 kts 224°
2026-05-04 18:55 43.28599 5.37983 34912 ft 394 kts 225°
2026-05-04 18:55 43.24820 5.32583 34947 ft 393 kts 238°
2026-05-04 18:55 43.23897 5.29038 34938 ft 404 kts 260°
2026-05-04 18:56 43.24062 5.25155 34943 ft 415 kts 278°
2026-05-04 18:56 43.24932 5.21344 34927 ft 422 kts 285°
2026-05-04 18:56 43.27350 5.13945 34923 ft 426 kts 289°
2026-05-04 18:57 43.29993 5.06662 34925 ft 427 kts 290°
2026-05-04 18:57 43.32670 4.99407 34924 ft 428 kts 290°
2026-05-04 18:58 43.35358 4.92107 34921 ft 430 kts 290°
2026-05-04 18:58 43.38046 4.84780 34923 ft 430 kts 290°
2026-05-04 18:59 43.40731 4.77447 34923 ft 430 kts 290°
2026-05-04 18:59 43.43434 4.70059 34916 ft 430 kts 290°
2026-05-04 19:00 43.46103 4.62749 34899 ft 430 kts 290°
2026-05-04 19:00 43.48793 4.55380 34894 ft 432 kts 290°
2026-05-04 19:01 43.51488 4.47939 34890 ft 433 kts 290°
2026-05-04 19:01 43.54166 4.40513 34891 ft 433 kts 290°
2026-05-04 19:02 43.56834 4.33079 34891 ft 433 kts 290°
2026-05-04 19:02 43.59485 4.25651 34886 ft 433 kts 290°
2026-05-04 19:03 43.62152 4.18160 34894 ft 434 kts 290°
2026-05-04 19:03 43.64810 4.10621 34890 ft 437 kts 290°
2026-05-04 19:04 43.67458 4.03076 34888 ft 437 kts 290°
2026-05-04 19:04 43.68540 3.99161 34904 ft 429 kts 277°
2026-05-04 19:04 43.68972 3.95134 34892 ft 423 kts 270°
2026-05-04 19:05 43.69131 3.87068 34892 ft 420 kts 265°
2026-05-04 19:05 43.69041 3.79008 34890 ft 422 kts 264°
2026-05-04 19:06 43.69531 3.70857 34894 ft 432 kts 277°
2026-05-04 19:06 43.71095 3.62817 34892 ft 435 kts 281°
2026-05-04 19:07 43.72886 3.54758 34891 ft 436 kts 282°
2026-05-04 19:07 43.74699 3.46796 34886 ft 436 kts 282°
2026-05-04 19:08 43.76758 3.38861 34888 ft 440 kts 287°
2026-05-04 19:08 43.79362 3.31169 34886 ft 446 kts 292°
2026-05-04 19:09 43.82426 3.23728 34888 ft 448 kts 295°
2026-05-04 19:09 43.85610 3.16304 34884 ft 449 kts 295°
2026-05-04 19:10 43.88827 3.08856 34886 ft 449 kts 295°
2026-05-04 19:10 43.92037 3.01423 34884 ft 450 kts 295°
2026-05-04 19:11 43.95246 2.93997 34887 ft 450 kts 295°
2026-05-04 19:11 43.98465 2.86540 34883 ft 450 kts 295°
2026-05-04 19:12 44.03295 2.75353 34880 ft 450 kts 295°
2026-05-04 19:13 44.05996 2.69104 34887 ft 450 kts 295°
2026-05-04 19:13 44.09755 2.60377 34888 ft 454 kts 295°
2026-05-04 19:14 44.12462 2.54084 34889 ft 453 kts 295°
2026-05-04 19:14 44.15686 2.46577 34888 ft 453 kts 295°
2026-05-04 19:15 44.18932 2.39009 34891 ft 453 kts 295°
2026-05-04 19:15 44.22700 2.30224 34894 ft 454 kts 295°
2026-05-04 19:16 44.25409 2.23915 34889 ft 456 kts 295°
2026-05-04 19:16 44.28655 2.16344 34890 ft 456 kts 295°
2026-05-04 19:17 44.31906 2.08751 34893 ft 456 kts 295°
2026-05-04 19:17 44.35169 2.01122 34892 ft 456 kts 295°
2026-05-04 19:18 44.38410 1.93531 34894 ft 456 kts 295°
2026-05-04 19:18 44.41656 1.85939 34885 ft 458 kts 295°
2026-05-04 19:19 44.44939 1.78306 34895 ft 458 kts 295°
2026-05-04 19:19 44.48221 1.70682 34895 ft 458 kts 295°
2026-05-04 19:20 44.51504 1.63051 34896 ft 458 kts 295°
2026-05-04 19:20 44.54788 1.55406 34898 ft 458 kts 295°
2026-05-04 19:21 44.58074 1.47718 34900 ft 458 kts 295°
2026-05-04 19:21 44.61315 1.40049 34898 ft 459 kts 294°
2026-05-04 19:22 44.64568 1.32351 34635 ft 455 kts 295°
2026-05-04 19:22 44.66183 1.28548 34098 ft 451 kts 294°
2026-05-04 19:22 44.67793 1.24771 33228 ft 451 kts 295°
2026-05-04 19:22 44.69364 1.21103 32296 ft 427 kts 295°
2026-05-04 19:23 44.70862 1.17615 31264 ft 411 kts 295°
2026-05-04 19:23 44.72307 1.14217 30043 ft 403 kts 295°
2026-05-04 19:23 44.73733 1.10837 28529 ft 400 kts 295°
2026-05-04 19:23 44.75150 1.07490 27091 ft 396 kts 295°
2026-05-04 19:24 44.76547 1.04188 25729 ft 389 kts 295°
2026-05-04 19:24 44.77931 1.00907 24422 ft 382 kts 295°
2026-05-04 19:24 44.79254 0.97764 23142 ft 375 kts 295°
2026-05-04 19:24 44.80578 0.94603 21695 ft 367 kts 295°
2026-05-04 19:25 44.81855 0.91527 20328 ft 359 kts 295°
2026-05-04 19:25 44.83077 0.88548 19038 ft 350 kts 295°
2026-05-04 19:25 44.84277 0.85586 17714 ft 342 kts 295°
2026-05-04 19:25 44.85424 0.82717 16306 ft 334 kts 295°
2026-05-04 19:26 44.86543 0.79881 14973 ft 327 kts 295°
2026-05-04 19:26 44.87629 0.77097 13716 ft 319 kts 295°
2026-05-04 19:26 44.88680 0.74375 12348 ft 311 kts 295°
2026-05-04 19:26 44.89681 0.71740 11044 ft 304 kts 295°
2026-05-04 19:27 44.90647 0.69102 9762 ft 300 kts 295°
2026-05-04 19:27 44.91569 0.66484 8471 ft 302 kts 295°
2026-05-04 19:27 44.92448 0.63953 8178 ft 265 kts 294°
2026-05-04 19:27 44.93260 0.61661 8301 ft 262 kts 295°
2026-05-04 19:28 44.94083 0.59326 8364 ft 261 kts 295°
2026-05-04 19:28 44.94891 0.57024 8363 ft 263 kts 294°
2026-05-04 19:28 44.95694 0.54745 8363 ft 262 kts 295°
2026-05-04 19:28 44.96503 0.52439 8358 ft 259 kts 294°
2026-05-04 19:29 44.97305 0.50153 8369 ft 263 kts 294°
2026-05-04 19:29 44.98092 0.47922 8356 ft 242 kts 294°
2026-05-04 19:29 44.98804 0.45932 8339 ft 212 kts 295°
2026-05-04 19:29 44.99430 0.44151 8344 ft 198 kts 294°
2026-05-04 19:30 45.00044 0.42386 8352 ft 199 kts 294°
2026-05-04 19:30 45.00651 0.40661 8360 ft 196 kts 294°
2026-05-04 19:30 45.01258 0.38911 8359 ft 196 kts 294°
2026-05-04 19:30 45.01859 0.37188 8364 ft 199 kts 294°
2026-05-04 19:31 45.02477 0.35480 8365 ft 193 kts 294°
2026-05-04 19:31 45.03103 0.33764 8362 ft 196 kts 294°
2026-05-04 19:31 45.03483 0.32002 8368 ft 190 kts 266°
2026-05-04 19:31 45.03330 0.30166 8750 ft 186 kts 252°
2026-05-04 19:32 45.02883 0.28377 8650 ft 196 kts 248°
2026-05-04 19:32 45.02386 0.26596 7633 ft 198 kts 248°
2026-05-04 19:32 45.01854 0.24767 6470 ft 204 kts 248°
2026-05-04 19:32 45.01288 0.22912 5261 ft 207 kts 247°
2026-05-04 19:33 45.00687 0.21074 4153 ft 205 kts 247°
2026-05-04 19:33 45.00051 0.19249 3087 ft 211 kts 247°
2026-05-04 19:33 44.99382 0.17385 2376 ft 209 kts 246°
2026-05-04 19:33 44.98770 0.15761 2369 ft 167 kts 246°
2026-05-04 19:34 44.98222 0.14348 2387 ft 172 kts 246°
2026-05-04 19:34 44.97620 0.12776 2386 ft 186 kts 246°
2026-05-04 19:34 44.97041 0.11092 2388 ft 192 kts 250°
2026-05-04 19:34 44.96519 0.09372 2385 ft 191 kts 253°
2026-05-04 19:35 44.96070 0.07601 2383 ft 193 kts 255°
2026-05-04 19:35 44.95582 0.05834 2388 ft 194 kts 252°
2026-05-04 19:35 44.95056 0.04037 2412 ft 212 kts 251°
2026-05-04 19:35 44.94449 0.01915 2422 ft 253 kts 252°
2026-05-04 19:36 44.93810 -0.00540 2392 ft 273 kts 253°
2026-05-04 19:36 44.93176 -0.03053 2389 ft 273 kts 253°
2026-05-04 19:36 44.92545 -0.05594 2394 ft 276 kts 253°
2026-05-04 19:36 44.91914 -0.08140 2389 ft 275 kts 253°
2026-05-04 19:37 44.91281 -0.10684 2619 ft 275 kts 253°
2026-05-04 19:37 44.90635 -0.13289 2919 ft 281 kts 252°
2026-05-04 19:37 44.89861 -0.15815 2946 ft 281 kts 247°
2026-05-04 19:37 44.89035 -0.18302 2946 ft 280 kts 255°
2026-05-04 19:38 44.88865 -0.20961 3130 ft 275 kts 271°
2026-05-04 19:38 44.88810 -0.23719 2951 ft 282 kts 267°
2026-05-04 19:38 44.88555 -0.26425 2812 ft 269 kts 264°
2026-05-04 19:38 44.88225 -0.28893 2888 ft 253 kts 257°
2026-05-04 19:39 44.87692 -0.31248 2844 ft 241 kts 255°
2026-05-04 19:39 44.87155 -0.33492 2905 ft 240 kts 254°
2026-05-04 19:39 44.86617 -0.35715 3354 ft 243 kts 254°
2026-05-04 19:39 44.86062 -0.37951 3851 ft 253 kts 253°
2026-05-04 19:40 44.85473 -0.40339 3674 ft 250 kts 253°
2026-05-04 19:40 44.84932 -0.42636 3633 ft 247 kts 255°
2026-05-04 19:40 44.84423 -0.44909 3628 ft 245 kts 255°
2026-05-04 19:40 44.83914 -0.47226 3627 ft 245 kts 255°
2026-05-04 19:41 44.83421 -0.49497 3611 ft 240 kts 256°
2026-05-04 19:41 44.82880 -0.51663 3492 ft 233 kts 246°
2026-05-04 19:41 44.82021 -0.53682 2943 ft 246 kts 239°
2026-05-04 19:41 44.81032 -0.55690 2587 ft 242 kts 238°
2026-05-04 19:42 44.80229 -0.57522 2699 ft 204 kts 245°
2026-05-04 19:42 44.79716 -0.59193 2822 ft 170 kts 256°
2026-05-04 19:42 44.79479 -0.60736 2850 ft 158 kts 269°
2026-05-04 19:42 44.79554 -0.62263 2810 ft 155 kts 286°
2026-05-04 19:43 44.79951 -0.63662 2478 ft 155 kts 302°
2026-05-04 19:43 44.80640 -0.64934 1874 ft 168 kts 313°
2026-05-04 19:43 44.81516 -0.66074 1263 ft 173 kts 313°
2026-05-04 19:43 44.82082 -0.67471 822 ft 158 kts 286°
2026-05-04 19:44 44.82301 -0.68905 443 ft 133 kts 281°
2026-05-04 19:44 44.82557 -0.70163 183 ft 131 kts 289°
2026-05-04 19:44 44.82788 -0.71192 170 ft 89 kts 289°
2026-05-04 19:44 44.82907 -0.71727 173 ft 35 kts 286°
2026-05-04 19:45 44.82963 -0.71999 172 ft 25 kts 286°
2026-05-04 19:45 44.83054 -0.72125 170 ft 16 kts
2026-05-04 19:45 44.83095 -0.72112 170 ft 0 kts 14°
2026-05-04 19:45 44.83103 -0.72109 170 ft 2 kts 15°
2026-05-04 19:46 44.83122 -0.72099 170 ft 4 kts 25°
2026-05-04 19:46 44.83153 -0.72062 170 ft 11 kts 54°
2026-05-04 19:46 44.83152 -0.71923 171 ft 16 kts 110°
2026-05-04 19:46 44.83116 -0.71767 171 ft 18 kts 107°
2026-05-04 19:47 44.83075 -0.71578 171 ft 22 kts 108°
2026-05-04 19:47 44.83030 -0.71360 171 ft 24 kts 106°
2026-05-04 19:47 44.82981 -0.71128 170 ft 24 kts 107°
2026-05-04 19:47 44.82976 -0.70929 171 ft 18 kts 54°
2026-05-04 19:48 44.83066 -0.70796 171 ft 20 kts 43°
2026-05-04 19:48 44.83166 -0.70658 170 ft 16 kts 44°
2026-05-04 19:48 44.83203 -0.70525 170 ft 15 kts 85°
2026-05-04 19:48 44.83177 -0.70444 170 ft 7 kts 153°
2026-05-04 19:49 44.83147 -0.70436 171 ft 0 kts 173°